Time,TemperatureF,DewpointF,PressureIn,WindDirection,WindDirectionDegrees,WindSpeedMPH,WindSpeedGustMPH,Humidity,HourlyPrecipIn,Conditions,Clouds,dailyrainin,SoftwareType,DateUTC
2013-03-15 00:11:00,40.3,33.0,29.46,ENE,77,0.0,1.0,75,0.00,,,0.00,weatherlink.com 1.10,2013-03-15 05:11:00,
2013-03-15 00:26:00,39.6,32.0,29.46,ENE,77,0.0,0.0,75,0.00,,,0.00,weatherlink.com 1.10,2013-03-15 05:26:00,
2013-03-15 00:41:00,38.2,32.0,29.45,ENE,77,0.0,1.0,78,0.00,,,0.00,weatherlink.com 1.10,2013-03-15 05:41:00,
2013-03-15 00:56:00,38.1,32.0,29.45,ENE,71,1.0,1.0,80,0.00,,,0.00,weatherlink.com 1.10,2013-03-15 05:56:00,
2013-03-15 01:11:00,37.2,32.0,29.45,ESE,117,0.0,1.0,81,0.00,,,0.00,weatherlink.com 1.10,2013-03-15 06:11:00,
2013-03-15 01:26:00,36.6,31.0,29.44,ESE,113,0.0,0.0,81,0.00,,,0.00,weatherlink.com 1.10,2013-03-15 06:26:00,
2013-03-15 01:41:00,36.1,31.0,29.44,East,91,2.0,2.0,82,0.00,,,0.00,weatherlink.com 1.10,2013-03-15 06:41:00,
2013-03-15 01:56:00,36.4,31.0,29.43,ESE,107,0.0,3.0,82,0.00,,,0.00,weatherlink.com 1.10,2013-03-15 06:56:00,
2013-03-15 02:26:00,35.4,30.0,29.42,ESE,121,0.0,1.0,82,0.00,,,0.00,weatherlink.com 1.10,2013-03-15 07:26:00,
2013-03-15 02:41:00,34.6,30.0,29.41,ESE,120,0.0,1.0,84,0.00,,,0.00,weatherlink.com 1.10,2013-03-15 07:41:00,
2013-03-15 02:56:00,34.0,29.0,29.41,ESE,121,0.0,0.0,83,0.00,,,0.00,weatherlink.com 1.10,2013-03-15 07:56:00,
2013-03-15 03:11:00,33.8,30.0,29.40,ESE,122,0.0,0.0,86,0.00,,,0.00,weatherlink.com 1.10,2013-03-15 08:11:00,
2013-03-15 03:41:00,32.7,30.0,29.38,East,101,0.0,1.0,88,0.00,,,0.00,weatherlink.com 1.10,2013-03-15 08:41:00,
2013-03-15 03:56:00,33.3,30.0,29.37,ESE,110,0.0,1.0,87,0.00,,,0.00,weatherlink.com 1.10,2013-03-15 08:56:00,
2013-03-15 04:11:00,33.1,30.0,29.37,ESE,112,0.0,0.0,87,0.00,,,0.00,weatherlink.com 1.10,2013-03-15 09:11:00,
2013-03-15 04:26:00,33.2,30.0,29.37,ESE,111,0.0,0.0,86,0.00,,,0.00,weatherlink.com 1.10,2013-03-15 09:26:00,
2013-03-15 04:41:00,33.3,30.0,29.36,ESE,116,0.0,1.0,88,0.00,,,0.00,weatherlink.com 1.10,2013-03-15 09:41:00,
2013-03-15 04:56:00,33.6,30.0,29.35,SE,127,0.0,1.0,86,0.00,,,0.00,weatherlink.com 1.10,2013-03-15 09:56:00,
2013-03-15 05:11:00,33.2,30.0,29.35,SE,139,0.0,1.0,87,0.00,,,0.00,weatherlink.com 1.10,2013-03-15 10:11:00,
2013-03-15 05:41:00,31.9,29.0,29.35,SE,139,0.0,1.0,89,0.00,,,0.00,weatherlink.com 1.10,2013-03-15 10:41:00,
2013-03-15 05:56:00,32.3,29.0,29.35,ESE,105,0.0,1.0,88,0.00,,,0.00,weatherlink.com 1.10,2013-03-15 10:56:00,
2013-03-15 06:11:00,32.4,30.0,29.36,ESE,104,0.0,0.0,90,0.00,,,0.00,weatherlink.com 1.10,2013-03-15 11:11:00,
2013-03-15 06:26:00,33.6,31.0,29.35,ESE,106,1.0,1.0,89,0.00,,,0.00,weatherlink.com 1.10,2013-03-15 11:26:00,
2013-03-15 06:41:00,34.7,32.0,29.35,ESE,114,1.0,1.0,88,0.00,,,0.00,weatherlink.com 1.10,2013-03-15 11:41:00,
2013-03-15 06:56:00,35.1,32.0,29.35,East,95,0.0,1.0,87,0.00,,,0.00,weatherlink.com 1.10,2013-03-15 11:56:00,
2013-03-15 07:11:00,34.6,31.0,29.35,ESE,108,0.0,1.0,87,0.00,,,0.00,weatherlink.com 1.10,2013-03-15 12:11:00,
2013-03-15 07:26:00,33.7,30.0,29.36,SSE,161,0.0,0.0,87,0.00,,,0.00,weatherlink.com 1.10,2013-03-15 12:26:00,
2013-03-15 07:41:00,34.0,31.0,29.36,SSE,160,0.0,1.0,88,0.00,,,0.00,weatherlink.com 1.10,2013-03-15 12:41:00,
2013-03-15 07:56:00,35.3,32.0,29.35,SSE,160,0.0,0.0,87,0.00,,,0.00,weatherlink.com 1.10,2013-03-15 12:56:00,
2013-03-15 08:11:00,35.7,32.0,29.35,SSE,160,0.0,1.0,86,0.00,,,0.00,weatherlink.com 1.10,2013-03-15 13:11:00,
2013-03-15 08:26:00,37.2,33.0,29.35,SSE,160,0.0,1.0,86,0.00,,,0.00,weatherlink.com 1.10,2013-03-15 13:26:00,
2013-03-15 08:41:00,39.6,36.0,29.34,SSE,160,0.0,0.0,85,0.00,,,0.00,weatherlink.com 1.10,2013-03-15 13:41:00,
2013-03-15 08:57:00,43.4,37.0,29.33,SSE,160,0.0,1.0,79,0.00,,,0.00,weatherlink.com 1.10,2013-03-15 13:57:00,
2013-03-15 09:12:00,47.2,39.0,29.33,SW,234,1.0,1.0,73,0.00,,,0.00,weatherlink.com 1.10,2013-03-15 14:12:00,
2013-03-15 09:27:00,48.2,39.0,29.33,SW,217,0.0,1.0,71,0.00,,,0.00,weatherlink.com 1.10,2013-03-15 14:27:00,
2013-03-15 09:42:00,49.6,39.0,29.34,WNW,283,1.0,2.0,68,0.00,,,0.00,weatherlink.com 1.10,2013-03-15 14:42:00,
2013-03-15 10:12:00,53.5,41.0,29.33,WSW,239,2.0,5.0,63,0.00,,,0.00,weatherlink.com 1.10,2013-03-15 15:12:00,
2013-03-15 10:27:00,55.7,41.0,29.32,SW,221,1.0,4.0,59,0.00,,,0.00,weatherlink.com 1.10,2013-03-15 15:27:00,
2013-03-15 10:42:00,57.7,41.0,29.31,SSW,212,2.0,3.0,55,0.00,,,0.00,weatherlink.com 1.10,2013-03-15 15:42:00,
2013-03-15 10:57:00,58.3,41.0,29.31,WSW,257,1.0,4.0,54,0.00,,,0.00,weatherlink.com 1.10,2013-03-15 15:57:00,
2013-03-15 11:12:00,60.0,43.0,29.31,NNW,342,1.0,3.0,53,0.00,,,0.00,weatherlink.com 1.10,2013-03-15 16:12:00,
2013-03-15 11:27:00,61.5,43.0,29.31,SW,223,0.0,4.0,50,0.00,,,0.00,weatherlink.com 1.10,2013-03-15 16:27:00,
2013-03-15 11:42:00,63.5,43.0,29.30,SW,236,2.0,4.0,48,0.00,,,0.00,weatherlink.com 1.10,2013-03-15 16:42:00,
2013-03-15 11:57:00,65.3,43.0,29.30,NNW,328,1.0,6.0,45,0.00,,,0.00,weatherlink.com 1.10,2013-03-15 16:57:00,
2013-03-15 12:12:00,66.8,43.0,29.29,WSW,238,2.0,4.0,43,0.00,,,0.00,weatherlink.com 1.10,2013-03-15 17:12:00,
2013-03-15 12:27:00,67.4,43.0,29.28,WSW,248,1.0,8.0,41,0.00,,,0.00,weatherlink.com 1.10,2013-03-15 17:27:00,
2013-03-15 12:42:00,68.3,43.0,29.26,North,356,2.0,4.0,40,0.00,,,0.00,weatherlink.com 1.10,2013-03-15 17:42:00,
2013-03-15 12:58:00,69.9,42.0,29.25,WNW,284,3.0,5.0,37,0.00,,,0.00,weatherlink.com 1.10,2013-03-15 17:58:00,
2013-03-15 13:13:00,70.9,42.0,29.24,East,101,1.0,2.0,35,0.00,,,0.00,weatherlink.com 1.10,2013-03-15 18:13:00,
2013-03-15 13:28:00,71.6,42.0,29.23,WNW,284,2.0,4.0,34,0.00,,,0.00,weatherlink.com 1.10,2013-03-15 18:28:00,
2013-03-15 13:43:00,71.9,41.0,29.22,South,178,4.0,5.0,33,0.00,,,0.00,weatherlink.com 1.10,2013-03-15 18:43:00,
2013-03-15 13:58:00,72.6,41.0,29.21,SSW,211,2.0,5.0,32,0.00,,,0.00,weatherlink.com 1.10,2013-03-15 18:58:00,
2013-03-15 14:13:00,72.8,42.0,29.20,ESE,113,0.0,3.0,33,0.00,,,0.00,weatherlink.com 1.10,2013-03-15 19:13:00,
2013-03-15 14:28:00,71.7,41.0,29.18,ESE,105,1.0,5.0,33,0.00,,,0.00,weatherlink.com 1.10,2013-03-15 19:28:00,
2013-03-15 14:43:00,71.4,42.0,29.17,ENE,70,2.0,6.0,34,0.00,,,0.00,weatherlink.com 1.10,2013-03-15 19:43:00,
2013-03-15 14:58:00,71.8,42.0,29.16,SSW,200,6.0,9.0,34,0.00,,,0.00,weatherlink.com 1.10,2013-03-15 19:58:00,
2013-03-15 15:13:00,71.3,41.0,29.15,SSE,165,5.0,10.0,34,0.00,,,0.00,weatherlink.com 1.10,2013-03-15 20:13:00,
2013-03-15 15:28:00,71.6,42.0,29.14,SSW,200,3.0,9.0,34,0.00,,,0.00,weatherlink.com 1.10,2013-03-15 20:28:00,
2013-03-15 15:43:00,70.6,44.0,29.13,ESE,108,4.0,11.0,38,0.00,,,0.00,weatherlink.com 1.10,2013-03-15 20:43:00,
2013-03-15 15:58:00,70.3,44.0,29.12,East,84,4.0,8.0,39,0.00,,,0.00,weatherlink.com 1.10,2013-03-15 20:58:00,
2013-03-15 16:13:00,70.1,44.0,29.11,ESE,107,3.0,6.0,39,0.00,,,0.00,weatherlink.com 1.10,2013-03-15 21:13:00,
2013-03-15 16:28:00,70.0,44.0,29.11,ESE,113,4.0,8.0,39,0.00,,,0.00,weatherlink.com 1.10,2013-03-15 21:28:00,
2013-03-15 16:43:00,69.7,44.0,29.10,ESE,119,6.0,6.0,39,0.00,,,0.00,weatherlink.com 1.10,2013-03-15 21:43:00,
2013-03-15 16:58:00,69.6,45.0,29.09,East,89,8.0,12.0,42,0.00,,,0.00,weatherlink.com 1.10,2013-03-15 21:58:00,
2013-03-15 17:13:00,68.9,46.0,29.08,SE,129,6.0,10.0,44,0.00,,,0.00,weatherlink.com 1.10,2013-03-15 22:13:00,
2013-03-15 17:28:00,68.4,47.0,29.07,ESE,122,7.0,11.0,46,0.00,,,0.00,weatherlink.com 1.10,2013-03-15 22:28:00,
2013-03-15 17:43:00,68.2,46.0,29.07,East,91,9.0,12.0,46,0.00,,,0.00,weatherlink.com 1.10,2013-03-15 22:43:00,
2013-03-15 17:58:00,68.2,46.0,29.07,ESE,107,6.0,11.0,46,0.00,,,0.00,weatherlink.com 1.10,2013-03-15 22:58:00,
2013-03-15 18:13:00,68.2,46.0,29.06,SSW,205,4.0,11.0,46,0.00,,,0.00,weatherlink.com 1.10,2013-03-15 23:13:00,
2013-03-15 18:28:00,68.0,46.0,29.05,ESE,119,6.0,10.0,46,0.00,,,0.00,weatherlink.com 1.10,2013-03-15 23:28:00,
2013-03-15 18:43:00,67.8,47.0,29.05,ESE,120,4.0,10.0,47,0.00,,,0.00,weatherlink.com 1.10,2013-03-15 23:43:00,
2013-03-15 18:58:00,67.5,46.0,29.05,East,98,4.0,5.0,47,0.00,,,0.00,weatherlink.com 1.10,2013-03-15 23:58:00,
2013-03-15 19:14:00,67.5,47.0,29.05,SE,124,5.0,11.0,48,0.00,,,0.00,weatherlink.com 1.10,2013-03-16 00:14:00,
2013-03-15 19:29:00,67.3,47.0,29.04,ESE,107,1.0,9.0,49,0.00,,,0.00,weatherlink.com 1.10,2013-03-16 00:29:00,
2013-03-15 19:44:00,66.9,48.0,29.04,SSE,148,2.0,6.0,50,0.00,,,0.00,weatherlink.com 1.10,2013-03-16 00:44:00,
2013-03-15 19:59:00,66.8,48.0,29.03,ESE,122,1.0,6.0,51,0.00,,,0.00,weatherlink.com 1.10,2013-03-16 00:59:00,
2013-03-15 20:14:00,66.2,48.0,29.03,ESE,109,2.0,5.0,52,0.00,,,0.00,weatherlink.com 1.10,2013-03-16 01:14:00,
2013-03-15 20:29:00,65.7,48.0,29.03,North,11,0.0,3.0,53,0.00,,,0.00,weatherlink.com 1.10,2013-03-16 01:29:00,
2013-03-15 20:44:00,65.2,48.0,29.04,East,98,1.0,2.0,54,0.00,,,0.00,weatherlink.com 1.10,2013-03-16 01:44:00,
2013-03-15 20:59:00,63.7,48.0,29.04,ESE,104,2.0,3.0,57,0.00,,,0.00,weatherlink.com 1.10,2013-03-16 01:59:00,
2013-03-15 21:14:00,62.8,48.0,29.03,East,79,0.0,2.0,58,0.00,,,0.00,weatherlink.com 1.10,2013-03-16 02:14:00,
2013-03-15 21:29:00,61.6,47.0,29.04,NE,36,0.0,1.0,60,0.00,,,0.00,weatherlink.com 1.10,2013-03-16 02:29:00,
2013-03-15 21:44:00,61.1,47.0,29.03,East,101,0.0,2.0,61,0.00,,,0.00,weatherlink.com 1.10,2013-03-16 02:44:00,
2013-03-15 21:59:00,60.4,47.0,29.03,ESE,114,0.0,2.0,61,0.00,,,0.00,weatherlink.com 1.10,2013-03-16 02:59:00,
2013-03-15 22:14:00,58.7,47.0,29.04,East,91,0.0,1.0,65,0.00,,,0.00,weatherlink.com 1.10,2013-03-16 03:14:00,
2013-03-15 22:29:00,58.0,47.0,29.04,ESE,121,0.0,1.0,66,0.00,,,0.00,weatherlink.com 1.10,2013-03-16 03:29:00,
2013-03-15 22:44:00,57.1,46.0,29.03,ESE,120,0.0,1.0,67,0.00,,,0.00,weatherlink.com 1.10,2013-03-16 03:44:00,
2013-03-15 22:59:00,56.2,46.0,29.02,ESE,121,1.0,1.0,69,0.00,,,0.00,weatherlink.com 1.10,2013-03-16 03:59:00,
2013-03-15 23:14:00,56.2,46.0,29.02,ESE,113,1.0,1.0,69,0.00,,,0.00,weatherlink.com 1.10,2013-03-16 04:14:00,
2013-03-15 23:29:00,56.6,46.0,29.02,SE,126,0.0,1.0,67,0.00,,,0.00,weatherlink.com 1.10,2013-03-16 04:29:00,
2013-03-15 23:44:00,58.0,45.0,29.02,SSE,162,0.0,2.0,63,0.00,,,0.00,weatherlink.com 1.10,2013-03-16 04:44:00,
2013-03-15 23:59:00,57.8,45.0,29.02,SE,136,0.0,1.0,62,0.00,,,0.00,weatherlink.com 1.10,2013-03-16 04:59:00,